Total_Precipitation_Accumulation
0.00 0.00 0.00 0.00 0.00 0.00 0.00 0.00 0.00 0.11 0.09 0.06 0.14 0.20 0.25 0.37 0.68 1.00 0.95 1.51 1.31 1.22 0.99 2.17 2.17 1.82 1.24 0.69 0.37 0.25 0.18 0.13 0.12 0.13 0.17 0.23 0.20 0.27 0.16 0.06 0.08 0.24 0.46 0.48 0.49 0.44 0.44 0.45 0.19
0.00 0.00 0.00 0.00 0.00 0.00 0.00 0.00 0.03 0.10 0.18 0.24 0.29 0.20 0.21 0.58 0.49 0.59 0.81 0.87 0.71 0.63 0.70 0.99 1.92 2.05 1.67 1.41 1.09 0.79 0.49 0.19 0.13 0.11 0.26 0.52 0.56 0.57 0.56 0.48 0.32 0.37 0.58 0.72 0.67 0.67 0.58 0.42 0.14
0.00 0.00 0.00 0.00 0.00 0.00 0.00 0.02 0.05 0.09 0.17 0.17 0.13 0.13 0.35 1.05 0.78 0.71 0.57 0.95 1.05 0.74 0.93 0.81 1.28 1.56 1.78 2.00 2.28 1.92 1.34 0.73 0.42 0.47 0.73 0.96 1.15 1.19 1.04 0.95 0.84 0.85 1.03 1.02 1.09 1.01 0.62 0.26 0.13
0.00 0.00 0.00 0.00 0.00 0.00 0.00 0.01 0.10 0.03 0.10 0.13 0.09 0.13 0.43 0.55 0.63 0.51 0.51 0.89 1.47 1.40 1.62 1.31 1.93 3.00 2.53 2.63 2.98 2.52 2.06 2.03 1.67 1.42 1.00 0.82 0.79 0.87 0.93 1.16 1.57 1.86 1.88 1.44 1.48 1.42 0.65 0.31 0.22
0.00 0.00 0.00 0.00 0.00 0.00 0.00 0.00 0.01 0.06 0.14 0.14 0.13 0.08 0.74 0.69 0.42 0.66 1.15 1.62 2.11 2.09 2.52 1.52 1.83 2.17 2.50 3.18 2.99 2.76 2.67 2.19 1.94 1.86 1.76 1.19 0.88 0.71 0.72 0.73 1.10 1.87 3.22 2.63 1.61 1.14 0.62 0.45 0.48
0.00 0.00 0.00 0.00 0.00 0.00 0.02 0.02 0.06 0.19 0.29 0.30 0.20 0.33 0.71 0.44 0.52 0.81 2.01 2.49 3.23 3.20 3.51 2.55 2.43 2.68 2.04 1.93 3.67 3.13 3.14 2.71 1.80 1.34 2.03 1.37 1.03 0.90 0.78 0.73 0.65 0.68 1.03 1.49 1.47 1.63 0.96 0.49 0.45
0.00 0.00 0.00 0.00 0.00 0.00 0.02 0.10 0.33 0.58 0.32 0.14 0.11 0.51 0.99 0.79 0.56 0.66 1.64 3.75 5.23 6.87 7.59 6.15 3.91 3.41 3.65 2.55 2.45 3.42 3.42 2.90 1.95 1.51 1.28 1.47 1.13 0.99 0.87 0.64 0.59 0.54 0.49 0.57 0.61 0.71 0.72 0.56 0.44
0.00 0.00 0.00 0.00 0.00 0.02 0.08 0.18 0.24 0.28 0.46 0.39 0.14 0.69 1.00 0.63 0.56 0.87 1.21 2.94 4.56 9.17 9.82 7.16 5.24 3.29 1.83 2.56 2.48 2.47 3.32 3.85 2.53 2.01 1.84 1.51 1.43 1.25 0.86 0.61 0.64 0.84 0.77 0.52 0.38 0.49 0.56 0.50 0.34
0.00 0.00 0.00 0.00 0.01 0.04 0.10 0.14 0.33 0.26 0.22 0.31 0.21 0.48 0.64 0.77 0.77 0.83 1.09 1.99 3.81 5.22 5.41 6.73 6.46 4.08 2.83 2.64 2.64 2.23 2.07 3.02 3.85 2.60 2.19 1.89 1.17 1.24 0.97 0.94 0.92 0.93 0.84 0.82 0.74 0.58 0.52 0.48 0.37
0.00 0.00 0.00 0.00 0.01 0.08 0.27 0.30 0.29 0.16 0.34 0.23 0.37 0.52 0.80 0.81 0.65 0.63 0.96 1.31 2.12 2.49 3.41 3.03 3.35 3.10 2.47 3.23 3.29 2.23 2.08 1.62 2.88 3.11 2.43 1.85 1.21 1.20 1.16 0.96 1.02 1.01 0.87 0.98 0.94 0.87 0.68 0.53 0.27
0.00 0.00 0.00 0.00 0.01 0.08 0.10 0.06 0.12 0.07 0.26 0.43 0.81 0.78 0.91 0.76 0.54 0.31 0.40 0.84 0.89 0.97 1.15 1.31 1.59 1.54 1.63 2.15 1.83 1.88 1.86 1.72 1.88 2.85 2.29 1.64 1.24 1.16 1.47 0.96 1.00 1.32 1.35 1.04 0.85 0.66 0.59 0.44 0.35
0.00 0.00 0.00 0.00 0.00 0.01 0.01 0.09 0.18 0.18 0.75 0.41 0.48 0.42 0.55 0.33 0.24 0.27 0.30 0.33 0.35 0.56 0.81 1.09 0.93 1.16 1.36 1.62 1.59 1.28 1.43 1.67 1.68 2.40 2.25 1.60 1.31 1.01 1.22 0.98 0.91 1.45 1.47 1.04 0.73 0.47 0.50 0.50 0.52
0.00 0.00 0.00 0.00 0.03 0.02 0.07 0.04 0.08 0.65 0.29 0.16 0.19 0.20 0.23 0.16 0.12 0.13 0.13 0.15 0.19 0.41 0.73 1.04 0.89 0.95 1.04 0.96 1.02 0.95 0.92 1.27 1.62 1.82 2.16 1.99 1.38 0.92 1.05 1.11 1.30 1.52 1.45 1.40 0.85 0.60 0.64 0.58 0.58
0.00 0.00 0.00 0.00 0.02 0.02 0.04 0.07 0.11 0.65 0.30 0.05 0.06 0.07 0.06 0.06 0.04 0.04 0.03 0.03 0.15 0.40 0.63 1.04 1.31 0.99 1.13 0.89 0.86 0.87 0.82 1.11 1.52 1.73 2.02 2.49 1.95 1.67 1.53 1.63 1.85 1.94 1.80 1.70 1.27 0.65 0.73 0.78 0.67
0.02 0.03 0.01 0.00 0.01 0.02 0.04 0.10 0.17 0.40 0.14 0.05 0.00 0.01 0.05 0.09 0.04 0.01 0.00 0.01 0.03 0.15 0.29 1.14 1.65 1.27 1.21 0.85 0.95 0.97 1.01 0.97 1.05 1.29 1.92 2.41 2.59 2.41 2.18 2.09 2.22 2.38 2.39 1.95 1.65 1.19 0.90 0.78 0.71
0.11 0.17 0.11 0.03 0.01 0.02 0.05 0.49 0.14 0.06 0.07 0.06 0.00 0.00 0.03 0.05 0.02 0.01 0.00 0.01 0.01 0.03 0.25 1.32 1.42 1.03 1.22 1.05 1.22 1.60 1.00 0.72 0.81 0.98 1.30 1.77 2.11 2.10 1.91 2.05 2.10 2.97 3.09 2.43 2.27 1.87 1.31 0.91 0.69
0.23 0.17 0.09 0.02 0.00 0.02 0.05 0.19 0.15 0.05 0.06 0.08 0.01 0.00 0.00 0.00 0.02 0.00 0.02 0.02 0.02 0.04 0.31 0.89 0.98 1.03 1.51 1.91 2.01 1.59 1.03 0.73 0.91 0.83 0.89 1.18 1.85 1.88 1.77 1.91 2.00 2.04 2.57 2.46 2.34 2.05 1.63 1.25 0.80
0.16 0.10 0.04 0.02 0.00 0.02 0.01 0.02 0.15 0.05 0.06 0.06 0.02 0.00 0.01 0.00 0.00 0.02 0.08 0.06 0.03 0.07 0.47 0.76 0.84 1.34 2.10 2.03 1.40 1.26 1.24 1.17 1.18 0.85 0.88 1.10 1.75 1.59 2.08 2.37 2.19 2.71 2.36 2.18 2.23 2.07 1.72 1.17 0.78
0.12 0.13 0.11 0.04 0.00 0.05 0.02 0.02 0.03 0.03 0.04 0.04 0.02 0.01 0.01 0.00 0.01 0.05 0.08 0.11 0.12 0.20 0.56 0.70 0.86 0.81 0.98 1.07 1.18 1.20 1.11 1.20 1.05 0.80 0.87 1.10 1.66 1.81 1.71 2.14 2.27 2.47 2.63 2.54 2.01 2.11 2.43 1.64 1.06
0.24 0.28 0.17 0.06 0.02 0.14 0.10 0.06 0.01 0.01 0.17 0.03 0.01 0.01 0.00 0.00 0.00 0.01 0.02 0.08 0.22 0.43 0.48 0.41 0.34 0.23 0.33 0.54 0.68 0.75 0.75 0.70 0.89 1.08 0.99 1.44 1.63 1.86 1.78 2.06 2.45 2.17 2.67 2.84 2.66 2.09 2.10 2.13 1.81
0.32 0.23 0.14 0.13 0.12 0.23 0.22 0.16 0.01 0.00 0.02 0.05 0.04 0.03 0.01 0.01 0.04 0.06 0.09 0.12 0.12 0.10 0.07 0.09 0.16 0.14 0.26 0.39 0.80 1.41 1.81 1.88 2.07 1.56 1.41 1.64 1.57 1.81 1.93 2.12 2.25 2.61 2.81 2.98 3.31 2.72 2.12 2.19 2.06
1.18 0.61 0.42 0.40 0.59 0.56 0.49 0.68 0.12 0.01 0.00 0.08 0.05 0.06 0.05 0.05 0.06 0.04 0.03 0.03 0.01 0.05 0.09 0.13 0.13 0.22 0.33 0.62 0.88 1.23 1.19 1.19 1.12 1.39 1.61 1.81 2.09 2.10 2.21 2.30 3.09 2.88 3.35 3.32 3.10 3.62 2.80 2.21 2.03
0.63 0.52 0.91 1.35 1.64 1.89 1.36 1.68 0.69 0.08 0.15 0.24 0.19 0.18 0.11 0.09 0.08 0.08 0.05 0.08 0.09 0.07 0.09 0.10 0.15 0.34 0.50 0.79 0.74 1.16 1.57 1.56 1.36 1.54 2.04 2.69 2.24 2.38 2.83 2.77 2.71 3.10 3.46 3.99 3.94 3.80 4.15 3.18 2.19
0.85 1.05 1.38 1.49 1.69 2.97 1.45 1.59 1.35 0.34 0.57 0.50 0.52 0.27 0.15 0.14 0.20 0.18 0.16 0.18 0.17 0.15 0.23 0.12 0.18 0.23 0.50 0.71 1.30 1.93 1.90 1.86 1.97 1.83 1.69 2.16 2.92 2.54 2.84 3.12 2.64 2.50 2.61 3.32 3.71 4.46 4.53 4.56 3.69
1.03 1.93 3.26 3.31 3.14 2.92 0.62 0.75 0.99 0.50 0.44 0.74 0.87 0.53 0.25 0.25 0.23 0.20 0.25 0.35 0.33 0.32 0.39 0.21 0.16 0.21 0.29 0.55 1.08 1.53 2.22 2.75 2.42 2.02 2.07 2.11 3.00 3.55 2.99 2.76 3.19 3.11 2.77 2.85 3.44 3.55 4.04 4.54 4.76
0.58 1.34 3.14 3.62 1.97 1.20 0.67 1.25 1.26 0.63 0.66 0.62 0.42 0.77 0.42 0.45 0.42 0.46 0.78 0.57 0.48 0.57 0.66 0.47 0.31 0.40 0.43 0.63 1.06 1.41 1.87 2.32 3.25 3.43 3.31 3.23 2.92 3.64 4.85 5.03 3.49 3.11 3.70 3.55 3.37 3.61 3.63 3.76 4.16
0.87 1.18 1.28 2.62 2.08 2.93 2.27 2.14 1.62 0.78 1.03 1.45 1.08 0.68 0.67 0.56 0.63 0.77 0.93 0.81 0.74 1.41 1.46 0.93 0.72 0.58 0.61 0.70 1.06 1.52 2.33 2.94 3.08 3.40 4.44 5.36 5.03 3.94 4.84 6.57 6.91 5.26 3.76 3.93 3.78 3.34 3.15 2.90 2.77
1.32 1.50 2.62 4.33 6.15 4.75 2.12 1.45 2.48 2.34 2.54 2.30 1.93 1.48 1.08 0.82 0.79 0.93 1.26 0.82 0.90 1.92 1.67 1.08 1.05 1.18 1.09 0.95 1.04 1.30 1.91 2.83 3.54 3.82 4.52 4.87 5.90 6.67 5.47 5.12 5.48 7.12 6.83 4.90 4.16 3.53 3.14 3.08 2.60
2.34 2.83 3.57 4.99 5.41 5.09 3.78 3.58 3.29 3.20 3.09 2.68 2.75 2.54 1.77 1.41 1.47 1.16 1.34 1.03 0.89 1.34 1.75 1.66 1.37 1.70 1.79 1.88 2.03 1.78 2.21 2.61 3.55 3.90 4.61 5.06 4.99 5.60 7.65 6.86 5.25 5.62 6.57 6.42 5.25 4.25 3.50 3.26 3.39
1.41 2.60 4.03 5.77 5.27 4.78 4.56 4.70 4.69 3.68 2.63 2.21 2.43 2.94 2.56 2.01 2.12 1.73 1.43 1.27 1.15 1.17 1.39 1.91 1.93 2.18 2.47 3.23 3.74 2.91 2.96 3.24 3.40 3.96 4.23 4.23 4.37 5.41 6.44 7.35 7.69 6.60 6.43 6.49 6.95 5.98 4.87 4.07 3.63